Meteopurmerend
purmerend
Purmerend - Baaienwijk



My webcam  My webcam


Onweer radar Meer informatie blitzortung!


Regen radar Meer informatie rain snow radar


Bezoek onze andere website:

CandyAppleRed WebdesignWebdesign Purmerend Candy Apple Red

MeteopurmerendBlog

Template documentation
and downloads



We konden geen weer-waarchuwingen ophalen. Ga rechtstreeks naar de Meteoalarm site : www.meteoalarm.eu en controleer daar .

15 daagse weersverwachting Larvik (NO)

  • Overzicht
  • Per uur
  • 15 dagen
  • Extra
  • Vergelijk
  • Kaarten
  • Dagkaart
  • Meer »
  • Info
  • Statistieken
  • Directe link
    Temp 6h Neerslag Wind  
 05:04     21:50    Daglengte: 16:46 Vandaag
14:00
17°
18.6 mm
2
warningclass
20:00
17°
7.8 mm
2
 05:06     21:48    Daglengte: 16:42 Morgen
02:00
15°
 
2
08:00
16°
 
2
14:00
24°
 
3
20:00
22°
 
3
 05:08     21:46    Daglengte: 16:38 Zaterdag 31 Jul
02:00
17°
 
3
08:00
17°
 
4
14:00
18°
38.4 mm
4
20:00
16°
33.1 mm
2
 05:11     21:43    Daglengte: 16:32 Zondag 01 Aug
02:00
15°
 
3
08:00
14°
 
6
Locatie info
Region: Vestfold
Latitude: 59.0519°N
Longitude: 10.0222°E
49 masl
Postcode: 3256
Temp/Neerslag /Baro Onweer/Dauwpunt
    Temp Baro 1h Neerslag Dauwpunt Wind UV Bewolking  
 05:04     21:50    Daglengte: 16:46 Vandaag
12:00
17°
997.5 hPa 11.5 mm
49%
16.2°
3
Windvlaag: 6.2 m/s
61% warningclass
13:00
17°
997.1 hPa 3.5 mm
82%
15.5°
2
Windvlaag: 5.6 m/s
79%
14:00
17°
996.9 hPa 3.6 mm
82%
15.7°
2
Windvlaag: 5.2 m/s
61% warningclass
15:00
17°
996.5 hPa
82%
15.9°
2
Windvlaag: 5.5 m/s
63%
16:00
17°
996.1 hPa
78%
15.9°
3
Windvlaag: 6.6 m/s
60%
17:00
17°
996.0 hPa 3.9 mm
82%
15.3°
3
Windvlaag: 6.6 m/s
64%
18:00
17°
995.8 hPa 3.9 mm
82%
14.8°
3
Windvlaag: 4.6 m/s
56% warningclass
19:00
17°
995.3 hPa
82%
14.6°
3
Windvlaag: 4.8 m/s
56%
20:00
17°
994.9 hPa
28%
14.8°
2
Windvlaag: 4.6 m/s
56%
21:00
17°
994.5 hPa
28%
15.0°
1
Windvlaag: 3.6 m/s
69%
22:00
16°
994.4 hPa
35%
14.9°
1
Windvlaag: 3 m/s
78%
23:00
16°
994.0 hPa
74%
14.6°
2
Windvlaag: 3 m/s
77%
 05:06     21:48    Daglengte: 16:42 Morgen
00:00
15°
993.9 hPa
79%
13.6°
2
Windvlaag: 2.4 m/s
67%
01:00
15°
993.7 hPa
75%
13.6°
1
Windvlaag: 2.5 m/s
76%
02:00
15°
993.5 hPa
25%
13.7°
2
Windvlaag: 2.3 m/s
80%
03:00
14°
993.3 hPa
14%
13.7°
2
Windvlaag: 2.6 m/s
62%
04:00
14°
993.1 hPa
15%
13.6°
2
Windvlaag: 2.3 m/s
51%
05:00
14°
992.7 hPa
14%
13.6°
2
Windvlaag: 1.6 m/s
51%
06:00
14°
992.6 hPa
14%
13.8°
2
Windvlaag: 1.4 m/s
53%
07:00
15°
992.7 hPa
14%
14.1°
2
Windvlaag: -0.2 m/s
64%
08:00
16°
992.7 hPa
14%
14.8°
2
Windvlaag: -0.2 m/s
33%
09:00
18°
992.9 hPa
14%
15.5°
3
Windvlaag: -0.4 m/s
38%
10:00
19°
992.9 hPa
14%
13.8°
3
Windvlaag: -0.6 m/s
32%
11:00
21°
993.3 hPa
14%
12.9°
3
Windvlaag: -0.8 m/s
30%
12:00
22°
993.4 hPa
14%
11.6°
3
Windvlaag: -0.6 m/s
30%
13:00
24°
993.6 hPa
14%
11.0°
3
Windvlaag: -0.1 m/s
35%
14:00
24°
993.7 hPa
67%
10.0°
3
Windvlaag: 3.9 m/s
35%
15:00
25°
993.8 hPa
65%
9.6°
3
Windvlaag: 4.8 m/s
11%
16:00
25°
993.9 hPa
65%
11.6°
2
Windvlaag: 6 m/s
6%
17:00
24°
993.9 hPa
65%
13.5°
3
Windvlaag: 6.7 m/s
9%
18:00
24°
993.8 hPa
64%
14.9°
3
Windvlaag: 7.1 m/s
16%
19:00
23°
993.8 hPa
16%
15.8°
3
Windvlaag: 6.6 m/s
24%
20:00
22°
993.7 hPa
14%
16.2°
3
Windvlaag: 6.4 m/s
29%
21:00
20°
993.7 hPa
14%
16.4°
2
Windvlaag: 5.6 m/s
12%
22:00
19°
993.7 hPa
14%
16.9°
1
Windvlaag: 4.1 m/s
8%
23:00
18°
993.7 hPa
14%
16.4°
2
Windvlaag: 2.3 m/s
38%
 05:08     21:46    Daglengte: 16:38 Zaterdag 31 Jul
00:00
17°
993.8 hPa
14%
15.5°
2
Windvlaag: -0.1 m/s
65%
01:00
17°
993.7 hPa
15%
16.5°
3
Windvlaag: -0.8 m/s
79%
02:00
17°
993.5 hPa
15%
16.3°
3
Windvlaag: -2.3 m/s
79%
03:00
17°
993.2 hPa
56%
16.0°
3
Windvlaag: -2.2 m/s
54%
04:00
17°
993.3 hPa
21%
15.8°
3
Windvlaag: -1.5 m/s
42%
05:00
16°
993.1 hPa
23%
15.0°
3
Windvlaag: -1.7 m/s
90%
06:00
16°
993.1 hPa
32%
12.3°
3
Windvlaag: -0.1 m/s
84%
07:00
17°
993.1 hPa
85%
11.6°
3
Windvlaag: 3.2 m/s
88%
08:00
17°
993.4 hPa
88%
11.8°
4
Windvlaag: 2.9 m/s
89%
09:00
17°
993.6 hPa 6.4 mm
46%
11.8°
4
Windvlaag: 2.5 m/s
95%
10:00
17°
993.9 hPa 6.4 mm
37%
12.1°
5
Windvlaag: 3.1 m/s
93%
11:00
17°
994.1 hPa 6.4 mm
32%
12.3°
5
Windvlaag: 3.2 m/s
98%
12:00
17°
994.2 hPa 6.4 mm
29%
12.6°
4
Windvlaag: 3.5 m/s
95%
13:00
18°
994.3 hPa 6.4 mm
23%
13.0°
4
Windvlaag: 3.1 m/s
96%
14:00
18°
994.2 hPa 6.4 mm
21%
13.3°
4
Windvlaag: 1.6 m/s
91%
15:00
18°
994.2 hPa 6.6 mm
23%
13.3°
3
Windvlaag: 0.9 m/s
94%
16:00
17°
994.2 hPa 6.9 mm
21%
12.9°
3
Windvlaag: -0.1 m/s
94%
17:00
17°
994.0 hPa 6.9 mm
21%
12.6°
3
Windvlaag: 1.3 m/s
91%
18:00
17°
993.8 hPa 6.4 mm
21%
12.5°
2
Windvlaag: 0.5 m/s
88%
19:00
17°
993.7 hPa 6.4 mm
21%
12.3°
2
Windvlaag: -2.8 m/s
91%
20:00
16°
993.7 hPa
21%
12.0°
2
Windvlaag: -3.9 m/s
93%
21:00
16°
994.0 hPa
23%
12.0°
2
Windvlaag: -3.7 m/s
97%
22:00
15°
994.2 hPa
22%
12.3°
2
Windvlaag: -3.6 m/s
81%
23:00
15°
994.5 hPa
21%
12.3°
2
Windvlaag: -3.6 m/s
80%
 05:11     21:43    Daglengte: 16:32 Zondag 01 Aug
00:00
15°
994.8 hPa
21%
12.0°
3
Windvlaag: -3.2 m/s
76%
01:00
15°
995.0 hPa
21%
11.4°
3
Windvlaag: -3.1 m/s
82%
02:00
15°
995.1 hPa
24%
10.8°
3
Windvlaag: -2.6 m/s
80%
03:00
15°
995.5 hPa
21%
9.0°
3
Windvlaag: 10.6 m/s
100%
04:00
15°
996.0 hPa
23%
7.3°
3
Windvlaag: 11.3 m/s
67%
05:00
14°
996.4 hPa
24%
8.0°
3
Windvlaag: 12.1 m/s
59%
06:00
14°
996.9 hPa
24%
7.8°
4
Windvlaag: 10.3 m/s
38%
07:00
14°
997.4 hPa
22%
6.9°
5
Windvlaag: 10.8 m/s
7%
08:00
14°
998.0 hPa
21%
7.0°
6
Windvlaag: 12.7 m/s
23%
09:00
14°
997.5 hPa 18.8 mm
100%
6.5°
6
Windvlaag: 9.8 m/s
54%
10:00
15°
998.1 hPa 18.8 mm
100%
6.7°
5
Windvlaag: 8.1 m/s
60%
11:00
16°
998.1 hPa 18.8 mm
100%
6.7°
5
Windvlaag: 6.6 m/s
28%
Temp/Neerslag /Baro Onweer/Dauwpunt
    Temp Baro Neerslag Dauwpunt Wind Bewolking  
 05:04     21:50    Daglengte: 16:46 Vandaag
14:00
17°
996.9 hPa 18.6 mm 15.7°
2
61% warningclass
17:00
17°
996.0 hPa 3.9 mm 15.3°
3
64%
20:00
17°
994.9 hPa 3.9 mm 14.8°
2
56%
23:00
16°
994.0 hPa   14.6°
2
77%
 05:06     21:48    Daglengte: 16:42 Morgen
02:00
15°
993.5 hPa   13.7°
2
80%
05:00
14°
992.7 hPa   13.6°
2
51%
08:00
16°
992.7 hPa   14.8°
2
33%
11:00
21°
993.3 hPa   12.9°
3
30%
14:00
24°
993.7 hPa   10.0°
3
35%
17:00
24°
993.9 hPa   13.5°
3
9%
20:00
22°
993.7 hPa   16.2°
3
29%
23:00
18°
993.7 hPa   16.4°
2
38%
 05:08     21:46    Daglengte: 16:38 Zaterdag 31 Jul
02:00
17°
993.5 hPa   16.3°
3
79%
05:00
16°
993.1 hPa   15.0°
3
90%
08:00
17°
993.4 hPa   11.8°
4
89%
11:00
17°
994.1 hPa 19.2 mm 12.3°
5
98%
14:00
18°
994.2 hPa 19.1 mm 13.3°
4
91%
17:00
17°
994.0 hPa 20.3 mm 12.6°
3
91%
20:00
16°
993.7 hPa 12.8 mm 12.0°
2
93%
23:00
15°
994.5 hPa   12.3°
2
80%
 05:11     21:43    Daglengte: 16:32 Zondag 01 Aug
02:00
15°
995.1 hPa   10.8°
3
80%
05:00
14°
996.4 hPa   8.0°
3
59%
08:00
14°
998.0 hPa   7.0°
6
23%
11:00
16°
998.1 hPa 56.5 mm 6.7°
5
28%
14:00
19°
998.9 hPa 56.5 mm 6.1°
4
9%
17:00
18°
1003.4 hPa 15.9 mm 9.1°
5
0%
20:00
18°
1003.8 hPa 15.9 mm 10.0°
6
0%
23:00
16°
1004.8 hPa 15.9 mm 10.2°
4
0%
 05:13     21:41    Daglengte: 16:28 Maandag 02 Aug
02:00
15°
1005.4 hPa 15.9 mm 9.7°
1
0%
05:00
13°
1006.4 hPa 15.9 mm 9.7°
2
0%
08:00
14°
1007.0 hPa 15.9 mm 9.5°
4
1%
11:00
17°
1007.5 hPa 15.9 mm 10.8°
4
1%
14:00
18°
1007.7 hPa 16.0 mm 12.5°
3
1%
17:00
18°
1007.9 hPa 16.0 mm 12.0°
3
0%
20:00
17°
1008.0 hPa 16.0 mm 11.4°
2
0%
23:00
13°
1009.4 hPa 16.0 mm 9.7°
5
1%
 05:15     21:39    Daglengte: 16:24 Dinsdag 03 Aug
02:00
13°
1009.7 hPa 16.1 mm 10.5°
5
1%
05:00
13°
1009.7 hPa 16.1 mm 10.6°
4
1%
08:00
14°
1009.9 hPa 16.3 mm 11.0°
3
1%
11:00
17°
1009.9 hPa 16.5 mm 11.8°
3
1%
14:00
18°
1009.5 hPa 16.7 mm 12.2°
2
1%
17:00
18°
1009.0 hPa 16.9 mm 12.3°
3
1%
20:00
18°
1008.9 hPa 16.9 mm 12.8°
4
1%
23:00
16°
1009.6 hPa 19.7 mm 12.4°
3
1%
 05:17     21:36    Daglengte: 16:19 Woensdag 04 Aug
02:00
16°
1010.0 hPa 21.6 mm 11.5°
2
1%
05:00
14°
1010.6 hPa 21.8 mm 11.5°
4
0%
08:00
14°
1011.8 hPa 22.1 mm 12.6°
4
0%
11:00
18°
1012.2 hPa 22.1 mm 12.8°
3
0%
14:00
18°
1012.0 hPa 22.1 mm 13.1°
3
0%
17:00
19°
1011.9 hPa 22.2 mm 13.5°
3
0%
20:00
18°
1011.6 hPa 22.2 mm 13.7°
4
1%
23:00
17°
1011.6 hPa 22.2 mm 12.4°
2
1%
 05:19     21:34    Daglengte: 16:15 Donderdag 05 Aug
02:00
16°
1011.3 hPa 22.2 mm 11.4°
4
1%
05:00
16°
1010.8 hPa 22.2 mm 10.4°
5
1%
08:00
16°
1011.2 hPa 22.2 mm 11.6°
3
1%
11:00
18°
1011.8 hPa   11.4°
4
1%
14:00
20°
1011.5 hPa 44.5 mm 14.3°
8
1%
20:00
18°
1010.6 hPa 51.1 mm 14.5°
8
0%
 05:22     21:31    Daglengte: 16:09 Vrijdag 06 Aug
02:00
16°
1011.7 hPa 55.1 mm 12.1°
5
0%
08:00
15°
1012.2 hPa 55.3 mm 11.3°
1
1%
14:00
20°
1013.2 hPa 55.3 mm 14.2°
5
1%
20:00
19°
1012.9 hPa 55.3 mm 13.2°
7
0%
 05:24     21:29    Daglengte: 16:05 Zaterdag 07 Aug
02:00
17°
1014.2 hPa 55.3 mm 10.8°
5
1%
08:00
18°
1014.5 hPa 55.5 mm 12.2°
2
1%
14:00
20°
1015.1 hPa 57.7 mm 13.3°
3
1%
20:00
19°
1014.0 hPa 58.2 mm 12.6°
2
0%
 05:26     21:26    Daglengte: 16:00 Zondag 08 Aug
02:00
16°
1013.6 hPa 59.4 mm 13.0°
4
1%
08:00
15°
1007.1 hPa 1.3 mm 11.9°
1
74%
14:00
18°
1007.5 hPa 1.8 mm 13.2°
3
75%
20:00
18°
1007.7 hPa 1.5 mm 13.7°
3
62%
 05:28     21:24    Daglengte: 15:56 Maandag 09 Aug
02:00
15°
1008.9 hPa 0.3 mm 12.5°
2
67%
08:00
15°
1009.2 hPa 1.2 mm 12.2°
1
65%
14:00
18°
1010.0 hPa 1.5 mm 13.1°
2
70%
20:00
18°
1009.8 hPa 1.8 mm 13.4°
3
65%
 05:31     21:21    Daglengte: 15:50 Dinsdag 10 Aug
02:00
15°
1011.0 hPa 0.9 mm 12.1°
2
61%
08:00
16°
1011.1 hPa 0.8 mm 12.2°
1
60%
14:00
19°
1011.4 hPa 0.2 mm 13.1°
3
54%
20:00
18°
1011.0 hPa 0.6 mm 13.4°
3
50%
 05:33     21:18    Daglengte: 15:45 Woensdag 11 Aug
02:00
16°
1012.2 hPa 0.3 mm 12.4°
2
55%
08:00
16°
1012.4 hPa 0.3 mm 12.5°
1
63%
14:00
19°
1012.3 hPa 1.6 mm 13.4°
4
62%
20:00
18°
1011.4 hPa 1.1 mm 14.1°
5
53%
 05:35     21:16    Daglengte: 15:41 Donderdag 12 Aug
02:00
16°
1011.8 hPa 0.5 mm 12.8°
2
50%
08:00
16°
1011.5 hPa 0.8 mm 12.3°
1
49%
14:00
19°
1011.5 hPa 0.6 mm 13.0°
2
57%
20:00
18°
1011.4 hPa 0.2 mm 13.3°
3
52%
 05:38     21:13    Daglengte: 15:35 Vrijdag 13 Aug
02:00
16°
1012.1 hPa 0.4 mm 12.4°
2
60%
08:00
16°
1012.0 hPa 0.5 mm 12.4°
1
59%
  CAPE Lifted Index Hail Supercell Tornado SRH 3km CL BTM PRES CL TOP PRES Swiss DWD icon SMHI TS
 05:04     21:50    Daglengte: 16:46 Vandaag
12:00 1039 J/kg -4.8 K 0 % 0 % 0 % 0 m²/s² 0 0 -4.71 95
13:00 175 J/kg -0.7 K 0 % 0 % 0 % 0 m²/s² 0 0 0.41 80
14:00 243 J/kg -1.8 K 0 % 0 % 0 % 0 m²/s² 0 0 -1.02 95
15:00 684 J/kg -2.7 K 0 % 0 % 0 % 0 m²/s² 0 0 -0.15 80
16:00 611 J/kg -2.4 K 0 % 0 % 0 % 0 m²/s² 0 0 -0.39 3
17:00 468 J/kg -1.5 K 0 % 0 % 0 % 0 m²/s² 0 0 0.09 3
18:00 449 J/kg -1.7 K 0 % 0 % 0 % 0 m²/s² 0 0 -0.5 95
19:00 540 J/kg -2.0 K 0 % 0 % 0 % 0 m²/s² 0 0 -1.4 3
20:00 523 J/kg -2.0 K 0 % 0 % 0 % 0 m²/s² 0 0 -1.55 3
21:00 449 J/kg -1.9 K 0 % 0 % 0 % 0 m²/s² 0 0 -1.72 3
22:00 349 J/kg -1.4 K 0 % 0 % 0 % 0 m²/s² 0 0 -1.28 3
23:00 260 J/kg -1.3 K 0 % 0 % 0 % 0 m²/s² 0 0 -1.18 3
 05:06     21:48    Daglengte: 16:42 Morgen
00:00 50 J/kg -0.2 K 0 % 0 % 0 % 0 m²/s² 0 0 -0.08 61
01:00 16 J/kg 0.4 K 0 % 0 % 0 % 0 m²/s² 0 0 0.49 3
02:00 0 J/kg 0.0 K 0 % 0 % 0 % 0 m²/s² 0 0 0.03 3
03:00 8 J/kg 0.0 K 0 % 0 % 0 % 0 m²/s² 0 0 0.12 3
04:00 1 J/kg 0.1 K 0 % 0 % 0 % 0 m²/s² 0 0 0.34 45
05:00 0 J/kg 0.6 K 0 % 0 % 0 % 0 m²/s² 0 0 1.47 3
06:00 0 J/kg 2.3 K 0 % 0 % 0 % 0 m²/s² 0 0 4.49 3
07:00 0 J/kg 3.9 K 0 % 0 % 0 % 0 m²/s² 0 0 6.84 3
08:00 0 J/kg 3.8 K 0 % 0 % 0 % 0 m²/s² 0 0 6.68 3
09:00 0 J/kg 3.0 K 0 % 0 % 0 % 0 m²/s² 0 0 5.49 3
10:00 0 J/kg 1.7 K 0 % 0 % 0 % 0 m²/s² 0 0 5.36 3
11:00 0 J/kg 0.7 K 0 % 0 % 0 % 0 m²/s² 0 0 3.13 3
12:00 78 J/kg -0.4 K 0 % 0 % 0 % 0 m²/s² 0 0 1.94 3
13:00 286 J/kg -1.4 K 0 % 0 % 0 % 0 m²/s² 0 0 1.03 3
14:00 384 J/kg -1.9 K 0 % 0 % 0 % 0 m²/s² 0 0 0.17 3
15:00 491 J/kg -2.1 K 0 % 0 % 0 % 0 m²/s² 0 0 -0.51 2
16:00 584 J/kg -2.3 K 0 % 0 % 0 % 0 m²/s² 0 0 -0.95 2
17:00 799 J/kg -2.9 K 0 % 0 % 0 % 0 m²/s² 0 0 -1.61 2
18:00 1083 J/kg -3.9 K 0 % 0 % 0 % 0 m²/s² 0 0 -2.31 2
19:00 1264 J/kg -4.6 K 0 % 0 % 0 % 0 m²/s² 0 0 -3.19 3
20:00 1324 J/kg -4.9 K 0 % 0 % 0 % 0 m²/s² 0 0 -3.13 2
21:00 1301 J/kg -4.7 K 0 % 0 % 0 % 0 m²/s² 0 0 -2.42 2
22:00 1150 J/kg -4.0 K 0 % 0 % 0 % 0 m²/s² 0 0 -1.12 1
23:00 335 J/kg -0.9 K 0 % 0 % 0 % 0 m²/s² 0 0 2.31 3
 05:08     21:46    Daglengte: 16:38 Zaterdag 31 Jul
00:00 35 J/kg -0.7 K 0 % 0 % 0 % 0 m²/s² 0 0 2.42 3
01:00 283 J/kg -2.0 K 0 % 0 % 0 % 0 m²/s² 0 0 2.08 3
02:00 226 J/kg -1.9 K 0 % 0 % 0 % 0 m²/s² 0 0 2.84 3
03:00 364 J/kg -2.1 K 0 % 0 % 0 % 0 m²/s² 0 0 2.88 3
04:00 849 J/kg -3.5 K 0 % 0 % 0 % 0 m²/s² 0 0 1.48 3
05:00 76 J/kg -2.2 K 0 % 0 % 0 % 0 m²/s² 0 0 2.66 3
06:00 0 J/kg -1.4 K 0 % 0 % 0 % 0 m²/s² 0 0 3.34 2
07:00 0 J/kg -2.1 K 0 % 0 % 0 % 0 m²/s² 0 0 2.52 2
08:00 0 J/kg -2.7 K 0 % 0 % 0 % 0 m²/s² 0 0 1.89 3
09:00 0 J/kg -3.0 K 0 % 0 % 0 % 0 m²/s² 0 0 1.26 3
10:00 0 J/kg -2.1 K 0 % 0 % 0 % 0 m²/s² 0 0 1.83 3
11:00 0 J/kg -1.5 K 0 % 0 % 0 % 0 m²/s² 0 0 2.22 3
12:00 0 J/kg -0.7 K 0 % 0 % 0 % 0 m²/s² 0 0 2.84 3
13:00 0 J/kg -0.3 K 0 % 0 % 0 % 0 m²/s² 0 0 3.06 3
14:00 0 J/kg -0.2 K 0 % 0 % 0 % 0 m²/s² 0 0 2.89 3
15:00 0 J/kg 0.5 K 0 % 0 % 0 % 0 m²/s² 0 0 3.41 3
16:00 0 J/kg 1.1 K 0 % 0 % 0 % 0 m²/s² 0 0 3.95 3
17:00 0 J/kg 0.8 K 0 % 0 % 0 % 0 m²/s² 0 0 3.8 3
18:00 0 J/kg 0.4 K 0 % 0 % 0 % 0 m²/s² 0 0 3.58 3
19:00 0 J/kg 0.2 K 0 % 0 % 0 % 0 m²/s² 0 0 3.38 3
20:00 0 J/kg 0.3 K 0 % 0 % 0 % 0 m²/s² 0 0 3.3 3
21:00 0 J/kg 0.7 K 0 % 0 % 0 % 0 m²/s² 0 0 3.37 3
22:00 0 J/kg 0.2 K 0 % 0 % 0 % 0 m²/s² 0 0 2.36 3
23:00 0 J/kg 0.6 K 0 % 0 % 0 % 0 m²/s² 0 0 2.25 3
 05:11     21:43    Daglengte: 16:32 Zondag 01 Aug
00:00 0 J/kg 0.6 K 0 % 0 % 0 % 0 m²/s² 0 0 1.86 3
01:00 0 J/kg 0.5 K 0 % 0 % 0 % 0 m²/s² 0 0 1.46 3
02:00 0 J/kg 1.2 K 0 % 0 % 0 % 0 m²/s² 0 0 1.98 3
03:00 0 J/kg 1.6 K 0 % 0 % 0 % 0 m²/s² 0 0 2.02 3
04:00 0 J/kg 1.8 K 0 % 0 % 0 % 0 m²/s² 0 0 2.31 3
05:00 0 J/kg 2.2 K 0 % 0 % 0 % 0 m²/s² 0 0 2.92 3
06:00 0 J/kg 2.8 K 0 % 0 % 0 % 0 m²/s² 0 0 3.31 3
07:00 0 J/kg 3.7 K 0 % 0 % 0 % 0 m²/s² 0 0 4.48 2
08:00 0 J/kg 3.6 K 0 % 0 % 0 % 0 m²/s² 0 0 4.14 2
09:00 0 J/kg 4.3 K 0 % 0 % 0 % 0 m²/s² 0 0 4.81
10:00 0 J/kg 3.8 K 0 % 0 % 0 % 0 m²/s² 0 0 4.25
11:00 0 J/kg 3.1 K 0 % 0 % 0 % 0 m²/s² 0 0 4.06
Temp Baro Wind Neerslag
  EWN Forecast EWN WRFDA DWD ICON FMI HIRLAM MET Norway GFS
 05:04     21:50    Daglengte: 16:46 Vandaag
14:00 17.0° 996.9 hPa 2.2 m/s 18.6 mm 15.1° 996.4 hPa 2.9 m/s 40.2 mm 16.4° 997.0 hPa 2.8 m/s 16.3 mm 17.3° 996.3 hPa 1.6 m/s 0.0 mm 17.8° 996.6 hPa 3.2 m/s
17:00 17.0° 996.0 hPa 3.4 m/s 3.9 mm 16.6° 995.6 hPa 7.1 m/s 52.3 mm 16.5° 996.2 hPa 3.1 m/s 0.8 mm 17.1° 994.9 hPa 3.2 m/s 0.0 mm 16.9° 996.2 hPa 6.6 m/s
20:00 17.2° 994.9 hPa 1.8 m/s 3.9 mm 17.1° 993.9 hPa 3.5 m/s 53.0 mm 16.1° 995.2 hPa 1.5 m/s 0.9 mm 17.3° 993.7 hPa 2.7 m/s 0.0 mm 16.1° 994.9 hPa 4.4 m/s
23:00 15.8° 994.0 hPa 1.5 m/s 0.0 mm 17.4° 992.1 hPa 5.5 m/s 53.4 mm 14.9° 994.4 hPa 0.9 m/s 0.0 mm 16.3° 992.5 hPa 2.3 m/s 0.0 mm 16.2° 993.8 hPa 2.0 m/s
 05:06     21:48    Daglengte: 16:42 Morgen
02:00 14.6° 993.5 hPa 1.8 m/s 0.0 mm 15.0° 991.9 hPa 6.3 m/s 54.1 mm 14.5° 994.1 hPa 1.1 m/s 0.3 mm 15.2° 991.6 hPa 3.1 m/s 0.0 mm 14.9° 993.5 hPa 3.1 m/s
05:00 14.3° 992.7 hPa 1.8 m/s 0.0 mm 14.6° 991.4 hPa 3.1 m/s 56.5 mm 14.3° 993.1 hPa 1.4 m/s 0.0 mm 14.6° 991.6 hPa 2.5 m/s 0.0 mm 15.2° 993.4 hPa 2.6 m/s
08:00 16.3° 992.7 hPa 2.3 m/s 0.0 mm 15.9° 992.6 hPa 2.9 m/s 56.5 mm 16.8° 992.7 hPa 1.9 m/s 0.0 mm 16.3° 991.9 hPa 2.7 m/s 0.0 mm 15.6° 994.2 hPa 2.4 m/s
11:00 20.9° 993.3 hPa 3.2 m/s 0.0 mm 19.7° 993.2 hPa 3.6 m/s 56.5 mm 20.7° 993.5 hPa 3.8 m/s 0.0 mm 23.0° 991.8 hPa 3.1 m/s 0.0 mm 20.0° 994.3 hPa 2.6 m/s
14:00 24.2° 993.7 hPa 3.0 m/s 0.0 mm 21.6° 993.6 hPa 5.5 m/s 56.5 mm 24.0° 994.0 hPa 3.5 m/s 0.0 mm 28.2° 991.6 hPa 2.0 m/s 0.0 mm 21.7° 994.7 hPa 5.6 m/s
17:00 24.1° 993.9 hPa 3.5 m/s 0.0 mm 22.3° 993.3 hPa 6.9 m/s 56.5 mm 24.2° 994.8 hPa 2.2 m/s 0.1 mm 26.5° 991.4 hPa 3.3 m/s 0.0 mm 21.8° 994.7 hPa 7.1 m/s
20:00 21.8° 993.7 hPa 2.8 m/s 0.0 mm 20.9° 992.5 hPa 6.1 m/s 56.5 mm 21.9° 995.1 hPa 2.4 m/s 0.0 mm 23.0° 991.4 hPa 3.1 m/s 0.0 mm 20.9° 994.5 hPa 7.5 m/s
23:00 17.9° 993.7 hPa 1.5 m/s 0.0 mm 18.3° 992.1 hPa 3.6 m/s 56.5 mm 18.5° 995.5 hPa 1.4 m/s 0.0 mm 17.8° 991.9 hPa 1.8 m/s 0.0 mm 18.4° 994.8 hPa 7.3 m/s
 05:08     21:46    Daglengte: 16:38 Zaterdag 31 Jul
02:00 17.1° 993.5 hPa 2.6 m/s 0.0 mm 15.6° 992.0 hPa 2.1 m/s 56.5 mm 17.2° 995.1 hPa 2.9 m/s 0.0 mm 18.3° 992.8 hPa 3.1 m/s 0.0 mm 16.6° 994.5 hPa 7.0 m/s
05:00 16.3° 993.1 hPa 2.7 m/s 0.0 mm 15.2° 992.0 hPa 4.3 m/s 56.5 mm 16.2° 995.0 hPa 2.6 m/s 0.0 mm 15.9° 994.0 hPa 5.6 m/s
08:00 17.0° 993.4 hPa 3.9 m/s 0.0 mm 14.1° 993.1 hPa 6.9 m/s 56.5 mm 17.3° 995.0 hPa 3.8 m/s 0.0 mm 16.6° 994.0 hPa 5.0 m/s
11:00 17.1° 994.1 hPa 4.5 m/s 19.2 mm 13.7° 994.0 hPa 5.6 m/s 56.5 mm 17.7° 995.1 hPa 4.9 m/s 0.0 mm 16.6° 994.9 hPa 3.1 m/s
14:00 18.0° 994.2 hPa 3.7 m/s 19.1 mm 14.1° 994.4 hPa 3.8 m/s 56.5 mm 18.6° 994.6 hPa 5.0 m/s 0.0 mm 16.6° 995.4 hPa 0.3 m/s
17:00 17.0° 994.0 hPa 2.8 m/s 20.3 mm 15.4° 994.4 hPa 2.9 m/s 56.5 mm 17.7° 994.0 hPa 3.4 m/s 0.0 mm 16.4° 995.4 hPa 4.9 m/s
20:00 16.3° 993.7 hPa 1.6 m/s 12.8 mm 16.2° 993.3 hPa 1.3 m/s 56.5 mm 17.6° 993.7 hPa 1.1 m/s 0.0 mm 14.4° 995.7 hPa 5.3 m/s
23:00 15.0° 994.5 hPa 2.5 m/s 0.0 mm 13.8° 993.8 hPa 2.5 m/s 56.5 mm 15.9° 994.5 hPa 2.0 m/s 0.0 mm 13.6° 996.6 hPa 5.7 m/s
 05:11     21:43    Daglengte: 16:32 Zondag 01 Aug
02:00 14.6° 995.1 hPa 2.7 m/s 0.0 mm 13.3° 994.1 hPa 2.9 m/s 56.5 mm 15.0° 995.5 hPa 2.3 m/s 0.0 mm 14.1° 997.4 hPa 6.2 m/s
05:00 14.1° 996.4 hPa 2.7 m/s 0.0 mm 11.6° 995.1 hPa 4.4 m/s 56.5 mm 14.8° 996.7 hPa 2.2 m/s 0.0 mm 13.8° 998.4 hPa 5.5 m/s
08:00 14.4° 998.0 hPa 5.8 m/s 0.0 mm 13.5° 997.0 hPa 6.5 m/s 56.5 mm 14.6° 998.2 hPa 5.6 m/s 0.0 mm 14.4° 1000.4 hPa 5.0 m/s
11:00 16.3° 998.1 hPa 4.8 m/s 56.5 mm 16.3° 998.1 hPa 4.8 m/s 56.5 mm 17.3° 1001.6 hPa 4.4 m/s
14:00 18.7° 998.9 hPa 3.5 m/s 56.5 mm 18.7° 998.9 hPa 3.5 m/s 56.5 mm 18.8° 1002.5 hPa 2.1 m/s
17:00 17.7° 1003.4 hPa 4.5 m/s 15.9 mm 17.7° 1003.4 hPa 4.5 m/s 15.9 mm
20:00 17.5° 1003.8 hPa 5.6 m/s 15.9 mm 17.5° 1003.8 hPa 5.6 m/s 15.9 mm
23:00 15.8° 1004.8 hPa 3.7 m/s 15.9 mm 15.8° 1004.8 hPa 3.7 m/s 15.9 mm
 05:13     21:41    Daglengte: 16:28 Maandag 02 Aug
02:00 15.2° 1005.4 hPa 1.0 m/s 15.9 mm 15.2° 1005.4 hPa 1.0 m/s 15.9 mm
05:00 13.4° 1006.4 hPa 2.2 m/s 15.9 mm 13.4° 1006.4 hPa 2.2 m/s 15.9 mm
08:00 14.0° 1007.0 hPa 4.3 m/s 15.9 mm 14.0° 1007.0 hPa 4.4 m/s 15.9 mm
11:00 16.9° 1007.5 hPa 3.9 m/s 15.9 mm 16.9° 1007.5 hPa 3.9 m/s 15.9 mm
14:00 18.0° 1007.7 hPa 3.1 m/s 16.0 mm 18.0° 1007.7 hPa 3.1 m/s 16.0 mm
17:00 18.1° 1007.9 hPa 3.1 m/s 16.0 mm 18.1° 1007.9 hPa 3.1 m/s 16.0 mm
20:00 17.3° 1008.0 hPa 2.0 m/s 16.0 mm 17.3° 1008.1 hPa 2.0 m/s 16.0 mm
23:00 13.0° 1009.4 hPa 5.0 m/s 16.0 mm 13.0° 1009.4 hPa 5.0 m/s 16.0 mm
 05:15     21:39    Daglengte: 16:24 Dinsdag 03 Aug
02:00 13.3° 1009.7 hPa 4.7 m/s 16.1 mm 13.3° 1009.7 hPa 4.7 m/s 16.1 mm
05:00 13.5° 1009.7 hPa 4.0 m/s 16.1 mm 13.5° 1009.7 hPa 4.0 m/s 16.1 mm
08:00 14.4° 1009.9 hPa 3.3 m/s 16.3 mm 14.4° 1009.9 hPa 3.3 m/s 16.3 mm
11:00 16.6° 1009.9 hPa 2.7 m/s 16.5 mm 16.6° 1009.9 hPa 2.7 m/s 16.5 mm
14:00 17.6° 1009.5 hPa 2.2 m/s 16.7 mm 17.6° 1009.5 hPa 2.2 m/s 16.7 mm
17:00 18.2° 1009.0 hPa 2.9 m/s 16.9 mm 18.2° 1009.0 hPa 2.9 m/s 16.9 mm
20:00 18.0° 1008.9 hPa 3.6 m/s 16.9 mm 18.0° 1008.9 hPa 3.6 m/s 16.9 mm
23:00 16.4° 1009.6 hPa 2.6 m/s 19.7 mm 16.4° 1009.6 hPa 2.6 m/s 19.7 mm
 05:17     21:36    Daglengte: 16:19 Woensdag 04 Aug
02:00 15.7° 1010.0 hPa 1.7 m/s 21.6 mm 15.7° 1010.0 hPa 1.7 m/s 21.6 mm
05:00 14.2° 1010.6 hPa 3.6 m/s 21.8 mm 14.2° 1010.6 hPa 3.6 m/s 21.8 mm
08:00 14.5° 1011.8 hPa 3.9 m/s 22.1 mm 14.5° 1011.8 hPa 3.9 m/s 22.1 mm
11:00 17.6° 1012.2 hPa 3.2 m/s 22.1 mm 17.6° 1012.2 hPa 3.2 m/s 22.1 mm
14:00 18.4° 1012.0 hPa 2.7 m/s 22.1 mm 18.4° 1012.0 hPa 2.7 m/s 22.1 mm
17:00 18.8° 1011.9 hPa 2.8 m/s 22.2 mm 18.8° 1011.9 hPa 2.8 m/s 22.2 mm
20:00 18.2° 1011.6 hPa 3.6 m/s 22.2 mm 18.2° 1011.6 hPa 3.6 m/s 22.2 mm
23:00 17.2° 1011.6 hPa 2.2 m/s 22.2 mm 17.2° 1011.6 hPa 2.2 m/s 22.2 mm
 05:19     21:34    Daglengte: 16:15 Donderdag 05 Aug
02:00 16.4° 1011.3 hPa 4.5 m/s 22.2 mm 16.4° 1011.3 hPa 4.5 m/s 22.2 mm
05:00 15.6° 1010.8 hPa 4.7 m/s 22.2 mm 15.6° 1010.8 hPa 4.7 m/s 22.2 mm
08:00 16.1° 1011.2 hPa 3.3 m/s 22.2 mm 16.1° 1011.2 hPa 3.3 m/s 22.2 mm
11:00 18.3° 1011.8 hPa 3.7 m/s 22.2 mm 18.3° 1011.8 hPa 3.7 m/s 22.2 mm
14:00 19.6° 1011.5 hPa 8.2 m/s 22.3 mm 19.6° 1011.5 hPa 8.2 m/s 22.3 mm
20:00 18.3° 1010.6 hPa 8.4 m/s 26.6 mm 18.3° 1010.6 hPa 8.4 m/s 26.6 mm
 05:22     21:31    Daglengte: 16:09 Vrijdag 06 Aug
02:00 16.4° 1011.7 hPa 5.4 m/s 27.6 mm 16.4° 1011.7 hPa 5.4 m/s 27.6 mm
08:00 15.2° 1012.2 hPa 1.2 m/s 27.6 mm 15.2° 1012.2 hPa 1.2 m/s 27.6 mm
14:00 19.7° 1013.2 hPa 5.3 m/s 27.6 mm 19.7° 1013.2 hPa 5.3 m/s 27.6 mm
20:00 18.7° 1012.9 hPa 6.5 m/s 27.6 mm 18.7° 1012.9 hPa 6.5 m/s 27.6 mm
 05:24     21:29    Daglengte: 16:05 Zaterdag 07 Aug
02:00 16.9° 1014.2 hPa 4.7 m/s 27.6 mm 16.9° 1014.2 hPa 4.7 m/s 27.6 mm
08:00 17.9° 1014.5 hPa 2.1 m/s 27.8 mm 17.9° 1014.5 hPa 2.1 m/s 27.8 mm
14:00 19.7° 1015.1 hPa 2.9 m/s 29.1 mm 19.7° 1015.1 hPa 2.9 m/s 29.1 mm
20:00 19.0° 1014.0 hPa 2.2 m/s 29.1 mm 19.0° 1014.0 hPa 2.2 m/s 29.1 mm
 05:26     21:26    Daglengte: 16:00 Zondag 08 Aug
02:00 16.2° 1013.6 hPa 3.5 m/s 30.2 mm 16.2° 1013.6 hPa 3.5 m/s 30.2 mm
08:00 15.3° 1007.1 hPa 0.6 m/s 1.3 mm
14:00 18.5° 1007.5 hPa 2.5 m/s 1.8 mm
20:00 17.7° 1007.7 hPa 3.0 m/s 1.5 mm
 05:28     21:24    Daglengte: 15:56 Maandag 09 Aug
02:00 15.3° 1008.9 hPa 1.5 m/s 0.3 mm
08:00 15.4° 1009.2 hPa 0.8 m/s 1.2 mm
14:00 18.4° 1010.0 hPa 2.3 m/s 1.5 mm
20:00 17.6° 1009.8 hPa 2.7 m/s 1.8 mm
 05:31     21:21    Daglengte: 15:50 Dinsdag 10 Aug
02:00 15.3° 1011.0 hPa 1.8 m/s 0.9 mm
08:00 15.6° 1011.1 hPa 0.9 m/s 0.8 mm
14:00 18.9° 1011.4 hPa 3.0 m/s 0.2 mm
20:00 18.1° 1011.0 hPa 3.3 m/s 0.6 mm
 05:33     21:18    Daglengte: 15:45 Woensdag 11 Aug
02:00 15.7° 1012.2 hPa 1.8 m/s 0.3 mm
08:00 16.1° 1012.4 hPa 0.6 m/s 0.3 mm
14:00 18.9° 1012.3 hPa 3.8 m/s 1.6 mm
20:00 18.2° 1011.4 hPa 4.7 m/s 1.1 mm
 05:35     21:16    Daglengte: 15:41 Donderdag 12 Aug
02:00 16.1° 1011.8 hPa 2.3 m/s 0.5 mm
08:00 15.9° 1011.5 hPa 0.8 m/s 0.8 mm
14:00 18.9° 1011.5 hPa 2.2 m/s 0.6 mm
20:00 18.3° 1011.4 hPa 2.7 m/s 0.2 mm
 05:38     21:13    Daglengte: 15:35 Vrijdag 13 Aug
02:00 15.9° 1012.1 hPa 1.6 m/s 0.4 mm
08:00 16.0° 1012.0 hPa 0.9 m/s 0.5 mm
FMI Hirlam - 7.5 km EWN WRFDA - 12 km DWD ICON - 7 km GFS - 25 km Basiskaart






























































Updatetijd (Europe/Amsterdam) Resolutie Lengte Stap
FMI Hirlam 07:00, 13:00, 19:00, 01:00 7.5 km 49h 1h
EWN WRFDA 10:15, 16:15, 22:15, 04:15 12 km 73h 1h
DWD ICON 06:15, 12:15, 18:15, 00:15 7 km 75h 1h
GFS 08:15, 14:15, 20:15, 02:15 25 km 237h 3h
30+ mm
25-30 mm
20-25 mm
15-20 mm
10-15 mm
6-10 mm
4-6 mm
2-4 mm
1-2 mm
0.5-1 mm
0.2-0.5 mm
0.1-0.2 mm
30+ mm
25-30 mm
20-25 mm
15-20 mm
10-15 mm
6-10 mm
4-6 mm
2-4 mm
1-2 mm
0.5-1 mm
0.2-0.5 mm
0.1-0.2 mm
Sneeuwval
Natte sneeuw
Hagel
Vorst
30+ mm
25-30 mm
20-25 mm
15-20 mm
10-15 mm
6-10 mm
4-6 mm
2-4 mm
1-2 mm
0.5-1 mm
0.2-0.5 mm
0.1-0.2 mm
Sneeuwval
Natte sneeuw
Hagel
Vorst
Onweer
50 mm
40 mm
30 mm
26 mm
22 mm
18 mm
14 mm
10 mm
9 mm
8 mm
7 mm
6 mm
5 mm
4.5 mm
4 mm
3.5 mm
3 mm
2.5 mm
2 mm
1.5 mm
1 mm
0.8 mm
0.6 mm
0.4 mm
0.2 mm
0.05 mm
35°
30°
25°
20°
15°
10°
-5°
-10°
-15°
-20°
-25°
-30°
-35°
33> m/s
29 m/s
25 m/s
21 m/s
17 m/s
14 m/s
11 m/s
8 m/s
5 m/s
3 m/s
0 m/s
2600 J/kg
2400 J/kg
2200 J/kg
2000 J/kg
1800 J/kg
1600 J/kg
1400 J/kg
1200 J/kg
1000 J/kg
800 J/kg
600 J/kg
400 J/kg
200 J/kg
70 dBZ
65 dBZ
60 dBZ
55 dBZ
50 dBZ
45 dBZ
40 dBZ
35 dBZ
30 dBZ
25 dBZ
20 dBZ
15 dBZ
10 dBZ
5 dBZ
-1 K
-2 K
-3 K
-4 K
-5 K
-6 K
-7 K
-8 K
-9 K
950 m²/s²
900 m²/s²
850 m²/s²
800 m²/s²
750 m²/s²
700 m²/s²
650 m²/s²
600 m²/s²
550 m²/s²
500 m²/s²
450 m²/s²
400 m²/s²
350 m²/s²
300 m²/s²
250 m²/s²
200 m²/s²
150 m²/s²
100 m²/s²
46 m/s
44 m/s
42 m/s
40 m/s
38 m/s
36 m/s
34 m/s
32 m/s
30 m/s
28 m/s
26 m/s
24 m/s
22 m/s
20 m/s
16 m/s
12 m/s
8 m/s
4 m/s
30 m/s
28 m/s
26 m/s
24 m/s
22 m/s
20 m/s
18 m/s
16 m/s
14 m/s
12 m/s
10 m/s
8 m/s
6 m/s
4 m/s
2 m/s
3.0
2.8
2.6
2.4
2.2
2.0
1.8
1.6
1.4
1.2
1.0
0.8
0.6
0.4
0.2
15
14
13
12
11
10
9
8
7
6
5
4
3
2
1
90%
80%
70%
60%
50%
40%
30%
20%
10%
42
40
38
36
34
32
30
28
26
24
22
20
18
16
14
12